CELTEE 1

Last updated on Thu Nov 21 2024 00:03:39 GMT+0000 (Coordinated Universal Time)

1 41850U 16067C 24324.94360623 .00010266 00000+0 62937-3 0 9990 2 41850 98.1073 142.9671 0001843 55.3808 304.7593 15.10366051438906
UTC large
Height (km)
Speed (km/s)
/
Latitude / Longitude
Inclination (degrees)
Orbital Period (minutes)
Azimuth
Elevation
Range (km)
Doppler Factor

Next 0 passes for location: London (51.5072 / 0.1276)

Sorry there are no passes over London.